Regional Weather Roundup
Issued by NWS

Home | Current Version | Previous Version | Graphics & Text | Print | Product List | Glossary On
Versions: 1 2 3 4 5 6 7 8 9 10 11 12 13 14 15 16 17 18 19 20 21 22 23 24 25 26 27 28 29 30 31 32 33 34 35 36 37 38 39 40 41 42 43 44 45 46 47 48 49 50
000
ASUS45 KPSR 231510
RWRAZ

ARIZONA REGIONAL HOURLY WEATHER ROUNDUP
NATIONAL WEATHER SERVICE PHOENIX AZ
800 AM MST SUN NOV 23 2014

NOTE: FAIR INDICATES FEW OR NO CLOUDS BELOW 12,000 FEET WITH NO
SIGNIFICANT WEATHER AND/OR OBSTRUCTIONS TO VISIBILITY.

AZZ001>003-036-231600-
NORTHWEST ARIZONA

CITY           SKY/WX    TMP DP  RH WIND       PRES   REMARKS
BULLHEAD CITY  SUNNY     59  19  21 N17       30.15R
KINGMAN        SUNNY     46  18  32 N13       30.16R
$$

AZZ004>008-015-016-018-231600-
NORTH CENTRAL ARIZONA

CITY           SKY/WX    TMP DP  RH WIND       PRES   REMARKS
GRAND CANYON   SUNNY     35  14  42 VRB5      30.11R WCI  31
PRESCOTT       SUNNY     43  21  41 NW13      30.11R
FLAGSTAFF      SUNNY     34  16  47 N9        30.07R WCI  27
PAYSON         SUNNY     41  25  52 NW3       30.09R
$$

AZZ009>014-017-231600-
NORTHEAST ARIZONA

CITY           SKY/WX    TMP DP  RH WIND       PRES   REMARKS
WINSLOW        CLOUDY    45  24  43 NW21G28   30.05R
SAINT JOHNS    CLOUDY    43  25  49 W23G31    29.99R
SHOW LOW       SUNNY     37  23  56 W9        30.07R WCI  31
$$

AZZ023-231600-
GREATER PHOENIX AREA

CITY           SKY/WX    TMP DP  RH WIND       PRES   REMARKS
PHOENIX        PTSUNNY   50  33  52 NE5       30.01R
BUCKEYE          N/A     45  27  49 E3        30.04R
GLENDALE       PTSUNNY   45  32  61 CALM      30.03R
LUKE AFB       MOSUNNY   46  30  55 NW1       30.02R
DEER VALLEY    MOSUNNY   46  29  51 CALM      30.02R
SCOTTSDALE     MOSUNNY   49  32  52 CALM      30.03R
MESA-GATEWAY   MOSUNNY   45  30  57 SE8       30.03R
CHANDLER       PTSUNNY   45  32  61 CALM      30.02R
$$

AZZ027-028-231600-
SOUTHWEST MARICOPA COUNTY AND PINAL COUNTY

CITY           SKY/WX    TMP DP  RH WIND       PRES   REMARKS
CASA GRANDE    SUNNY     45  27  49 MISG      30.03R
$$

AZZ503-504-507>509-231600-
SOUTHEAST ARIZONA

CITY           SKY/WX    TMP DP  RH WIND       PRES   REMARKS
TUCSON         MOSUNNY   45  31  58 S5        30.06R
DAVIS-MONTHAN  MOSUNNY   46  31  57 SE6       30.05R
RYAN FIELD       N/A    N/A N/A N/A E3        30.05R
NOGALES        MOSUNNY   42  32  67 CALM      30.08R
SIERRA VISTA   MOSUNNY   53  24  32 W14       30.06R
DOUGLAS        MOSUNNY   42  29  59 W5        30.07R
SAFFORD        SUNNY     52  26  36 NW14      29.98R
$$

AZZ020-021-025-026-031-231600-
SOUTHWEST ARIZONA

CITY           SKY/WX    TMP DP  RH WIND       PRES   REMARKS
YUMA           PTSUNNY   56  44  64 N6        30.05R
$$

CAZ031-033-041-043-047-048-061-231600-
SOUTHERN CALIFORNIA

CITY           SKY/WX    TMP DP  RH WIND       PRES   REMARKS
DOWNTOWN L.A.  MOSUNNY   58  53  84 CALM      30.10R
L.A. AIRPORT   PTSUNNY   60  51  72 CALM      30.10R
SAN DIEGO      PTSUNNY   57  50  77 N3        30.08R
BURBANK        MOSUNNY   62  40  44 W7        30.12R
ONTARIO        PTSUNNY   64  35  34 NE18G35   30.09R
RIVERSIDE      PTSUNNY   63  38  39 N13G28    30.09S
PALM SPRINGS   SUNNY     64  36  35 NW15      30.12R
EL CENTRO NAS  SUNNY     54  45  71 CALM      30.07R
IMPERIAL       SUNNY     51  44  77 SW3       30.06R
BLYTHE         SUNNY     63  33  32 N15       30.09R
NEEDLES        SUNNY     61  21  21 N13       30.14R
$$

NVZ020-UTZ003-231600-
SOUTHERN NEVADA-UTAH

CITY           SKY/WX    TMP DP  RH WIND       PRES   REMARKS
LAS VEGAS      MOSUNNY   54  17  23 NW15G28   30.19R
SALT LAKE CITY FLURRIES  32  29  88 NE8       30.16R WCI  25
$$

NMZ009-TXZ055-231600-
NEW MEXICO-WEST TEXAS

CITY           SKY/WX    TMP DP  RH WIND       PRES   REMARKS
ALBUQUERQUE    MOSUNNY   44  24  45 NW26G32   29.88R
EL PASO        PTSUNNY   56  23  27 W26G41    29.91R
$$


........................KEY........................
SKY/WX - SKY CONDITION/WEATHER
TMP    - TEMPERATURE IN FAHRENHEIT
DP     - DEW POINT IN FAHRENHEIT
RH     - RELATIVE HUMIDITY IN PERCENT
WIND   - DIRECTION AND SPEED IN MILES PER HOUR (MPH)
VRB    - VARIABLE WIND DIRECTION
PRES   - MEAN SEA LEVEL PRESSURE IN INCHES OF MERCURY
         F - FALLING PRESSURE   R - RISING PRESSURE
         S - STEADY PRESSURE
VSB    - VISIBILITY IN MILES
HX     - HEAT INDEX IN FAHRENHEIT
WCI    - WIND CHILL INDEX IN FAHRENHEIT
TC     - TEMPERATURE IN CELSIUS WHICH IS ALSO KNOWN AS
         TEMPERATURE IN CENTIGRADE
AFB    - AIR FORCE BASE
         LUKE AFB IS LUKE AIR FORCE BASE
         DAVIS-MONTHAN IS DAVIS-MONTHAN AIR FORCE BASE
NAS    - NAVAL AIR STATION
         EL CENTRO NAS IS EL CENTRO NAVAL AIR STATION
N/A    - NOT AVAILABLE


USA.gov is the U.S. government's official web portal to all federal, state and local government web resources and services.